Location: Newark
(36.1222°N, 100.9183°E)
Time: 03:10:26
(UTC+00:00)

N. Korean satellite - Visible Passes

Search period start: 17 October 2019 00:00
Search period end: 27 October 2019 00:00
Orbit: 455 x 508 km, 97.2° (Epoch: 16 October)

Date Brightness Start Highest point End Pass type
(mag) Time Alt. Az. Time Alt. Az. Time Alt. Az.
18 Oct 10.5 11:33:21 10° WSW 11:34:23 11° W 11:35:25 10° WNW visible
18 Oct 7.2 22:59:23 10° NNE 23:02:59 63° E 23:06:36 10° S visible
19 Oct 9.3 11:06:07 10° SSW 11:08:57 24° W 11:11:47 10° NW visible
19 Oct 9.1 22:34:30 10° NE 22:37:39 27° E 22:40:49 10° SSE visible
20 Oct 10.2 22:10:27 10° ENE 22:12:14 13° E 22:14:01 10° ESE visible
22 Oct 10.1 11:24:36 10° SW 11:26:30 14° W 11:28:24 10° WNW visible
22 Oct 7.8 22:51:37 10° NNE 22:55:10 48° E 22:58:45 10° S visible
23 Oct 8.8 10:58:00 10° SSW 11:01:03 31° W 11:04:10 10° NNW visible
23 Oct 9.5 22:26:53 10° NE 22:29:48 22° E 22:32:44 10° SSE visible
24 Oct 10.5 22:03:36 10° E 22:04:21 10° E 22:05:04 10° ESE visible
26 Oct 9.8 11:16:09 10° SW 11:18:34 18° W 11:21:00 10° NW visible
26 Oct 8.4 22:43:51 10° NNE 22:47:19 38° E 22:50:47 10° SSE visible
